www.pogodaiklimat.ru

Погода и климат >> Архив погоды >> Россия >> Томская область >> Напас


ПОГОДА в Напасе

  • Прогноз погоды в Напасе
  • Монитор погоды в Напасе

АРХИВ ПОГОДЫ в Напасе

Время (UTC), дата Ветер
(напр.,м/с)
 
Видим.   Явления Облачность Т
(С)
Тd
(С)
f
(%)
Тe
(С)
Тes
(С)
Комфортность P
(гПа)
Po
(гПа)
Тmin
(С)
Tmax
(С)
R
(мм)
R24
(мм)
S
(см)
06 17.07 ЮВ 2 20 км 10/3 600 м
[Cu hum Ci fib]
+23.7 +16.5 64 +27 +35 жарко 1007.6 998.8
09 17.07 СЗ 1 20 км 3/3 300 м
[Cu hum]
+25.9 +16.7 57 +30 +38 душно 1007.1 998.4
12 17.07 СВ 1 20 км 3/3 300 м
[Cu hum]
+26.2 +15.6 52 +29 +32 жарко 1007.0 998.3 +26.5
15 17.07 штиль 0 20 км 10/0
[Ci sp]
+22.9 +18.6 77 +29 +29 очень
душно
1007.0 998.2
18 17.07 ЮЗ 1 4000 м дымка 10/0
[Ac trans Ci fib]
+18.1 +17.4 96 +19 +19 1007.0 998.1
21 17.07 4000 м дымка 10/0
[Ac trans Ci fib]
+17.6 +16.4 93 1006.4 997.5
00 18.07 СЗ 1 4000 м слаб. ливневой дождь 10/10 270 м
[Cb cap]
+18.5 +17.9 96 +20 +20 1005.3 996.5 +17.2 0.0
03 18.07 З 1 4000 м дымка {ливн. осадки} 10/10 210 м
[St]
+20.3 +19.7 96 +25 +25 комфорт 1004.5 995.8
06 18.07 СВ 2 20 км {ливн. осадки} 10/8 500 м
[Cb cap Ac trans Cc]
+22.7 +20.4 87 +29 +31 очень
душно
1004.0 995.3
09 18.07 В 2 20 км 8/4 300 м
[Cb cap Cc]
+26.3 +19.9 68 +32 +38 очень
душно
1003.6 995.1
12 18.07 штиль 0 20 км 8/4 300 м
[Cb cap Cc]
+25.1 +20.9 78 +32 +34 очень
душно
1003.7 995.1 +27.0 4
15 18.07 СВ 1 20 км 8/3 300 м
[Cb cap Ci sp]
+23.0 +10.7 46 +25 +25 комфорт 1004.1 995.4
18 18.07 штиль 0 4000 м дымка 6/1 600 м
[Sc Ci sp]
+19.3 +18.3 94 +21 +21 комфорт 1004.8 996.0
21 18.07 штиль 0 4000 м дымка 3/1 600 м
[Sc Ci sp]
+17.0 +16.3 96 +17 +17 1005.3 996.5
00 19.07 СВ 1 500 м туман ?/? +16.8 +16.6 99 +18 +18 1006.1 997.2 +15.7
03 19.07 С 1 4000 м дымка {туман} 9/6 1000 м
[Cb cap Ac trans Ci fib]
+20.0 +18.2 89 +24 +26 комфорт 1007.8 998.9
06 19.07 СВ 1 20 км {туман} 8/6 600 м
[Cu hum Ci fib]
+24.2 +18.2 69 +29 +34 душно 1008.4 999.6
09 19.07 Ю 1 20 км 4/4 600 м
[Cu hum]
+27.0 +11.6 38 +28 +35 жарко 1008.7 999.7
12 19.07 С 1 20 км 3/0
[Ci sp]
+27.7 +16.9 52 +32 +35 очень
душно
1008.6 1000.0 +28.7
15 19.07 штиль 0 20 км 10/6 1000 м
[Sc Ac trans Ci sp]
+24.0 +20.2 79 +30 +30 очень
душно
1009.3 1000.6
18 19.07 СВ 1 20 км 10/10 420 м
[Cb cap]
+22.5 +19.7 84 +29 +29 очень
душно
1010.0 1001.2
21 19.07 СВ 1 4000 м дымка 10/6 300 м
[Cb cap Ac trans Ci sp]
+20.2 +18.6 91 +25 +25 комфорт 1010.8 1002.0
00 20.07 СВ 1 4000 м дымка 10/0
[Ci sp]
+18.9 +17.4 91 +21 +23 комфорт 1012.0 1003.1 +18.2
03 20.07 В 3 4000 м мгла 6/0
[Ac lent Ci fib]
+21.8 +15.8 69 +25 +31 комфорт 1012.8 1004.0
06 20.07 В 4 4000 м мгла 3/3 600 м
[Cu med, cong]
+24.3 +11.4 44 +26 +32 жарко 1013.1 1004.3
09 20.07 СВ 3 4000 м мгла 1/1 600 м
[Cu med, cong]
+24.7 +8.8 36 +25 +33 комфорт 1013.0 1004.2
12 20.07 В 1 4000 м мгла 8/0
[Ci fib]
+23.7 +11.3 46 +25 +28 комфорт 1013.1 1004.3 +25.1
15 20.07 СВ 1 4000 м мгла 3/0
[Ci fib]
+17.7 +14.6 82 +19 +19 1013.8 1004.9
18 20.07 штиль 0 4000 м дымка 3/0
[Ci fib]
+13.3 +11.6 89 +13 +13 1014.6 1005.5
21 20.07 С 1 4000 м дымка ясно +11.3 +10.7 96 +11 +11 1013.8 1004.7
00 21.07 СЗ 1 20 км ясно +11.8 +9.6 86 +12 +13 1013.7 1004.6 +10.2
03 21.07 С 1 4000 м мгла 10/0
[Ci sp]
+15.8 +10.9 73 +17 +24 1012.8 1003.8
06 21.07 С 1 4000 м мгла 10/0
[Ci sp]
+19.5 +10.7 57 +22 +34 комфорт 1011.1 1002.2
09 21.07 СВ 1 4000 м мгла ясно +21.1 +10.5 51 +23 +35 комфорт 1010.5 1001.7
12 21.07 В 1 4000 м мгла ясно +19.9 +9.6 51 +22 +26 комфорт 1010.3 1001.4 +21.2
15 21.07 СВ 1 4000 м мгла ясно +16.1 +10.2 68 +17 +17 1010.5 1001.5
18 21.07 СВ 1 4000 м мгла ясно +13.1 +8.9 76 +13 +13 1010.2 1001.1
21 21.07 СВ 1 4000 м мгла ясно +11.3 +9.3 87 +11 +11 1009.3 1000.2
00 22.07 С 1 1000 м дымка 10/10 90 м
[St]
+11.3 +10.1 92 +11 +11 1009.2 1000.1 +10.6
03 22.07 СЗ 1 4000 м мгла 10/6 420 м
[Cu hum Ci sp]
+13.4 +11.1 86 +14 +16 1008.8 999.7
06 22.07 СЗ 1 4000 м мгла 10/10 330 м
[Cb cap]
+16.3 +11.9 75 +17 +17 1006.9 997.9
09 22.07 С 3 4000 м мгла 10/6 600 м
[Cu hum Ci sp]
+19.2 +12.6 66 +21 +23 комфорт 1005.2 996.4
12 22.07 СЗ 2 4000 м мгла 10/6 600 м
[Cu hum Ci sp]
+20.4 +12.2 59 +23 +24 комфорт 1004.9 996.1 +20.7
15 22.07 штиль 0 4000 м мгла 10/0
[Ci sp]
+16.3 +13.8 85 +16 +16 1004.8 995.9
18 22.07 СЗ 1 4000 м дымка 10/0
[Ci sp]
+13.2 +12.5 96 +13 +13 1004.5 995.5
21 22.07 СЗ 1 4000 м дымка 10/0
[Ci sp]
+11.8 +11.4 97 +12 +12 1003.9 994.8
00 23.07 штиль 0 4000 м дымка 10/0
[Ac lent Ci sp]
+10.9 +10.3 96 +10 +11 1003.5 994.4 +10.0
03 23.07 С 1 4000 м мгла 10/5 600 м
[Sc Ac trans Ci sp]
+14.4 +13.0 91 +15 +17 1002.2 993.2
06 23.07 штиль 0 4000 м мгла 10/10 600 м
[Cb cap]
+15.5 +14.1 91 +15 +15 1001.6 992.7
09 23.07 С 1 4000 м мгла 10/10 600 м
[Cb cap]
+18.0 +14.4 79 +19 +19 1001.3 992.5
12 23.07 штиль 0 4000 м мгла 3/3 600 м
[Cb cap]
+18.2 +15.0 82 +18 +21 1001.1 992.3 +20.9 0.3
15 23.07 СВ 4 4000 м гроза без осадков 10/8 600 м
[Cb cap]
+16.8 +15.6 93 +16 +16 1001.0 992.2
18 23.07 С 1 4000 м дымка {гроза, ливн. осадки} 10/10 500 м
[Cb cap]
+12.8 +12.2 96 +13 +13 1001.3 992.3
21 23.07 штиль 0 500 м туман ?/? +11.1 +11.1 100 +10 +10 1001.3 992.2
00 24.07 штиль 0 500 м туман ?/? +10.9 +10.9 100 +10 +10 1001.3 992.2 +10.6 12
03 24.07 З 1 500 м туман ?/? +11.6 +11.2 97 +11 +11 1001.6 992.5

 

Местоположение метеостанции Напас (Томская область, Россия): широта 59.85 долгота 81.95 высота над уровнем моря 76 м.

В архиве по умолчанию представлена погода в Напасе за последнюю неделю. Архивные данные за месяц целиком и за предыдущие месяцы, начиная с января 2011 года, Вы можете получить, выбрав интересующий диапазон дат из раскрывающегося списка и нажав кнопку "Ввод!".


*Определитесь, кто Вы:
робот инопланетянин человек

Внимание! Время в таблицах - всемирное. Для получения местного времени необходимо прибавить поправку, которая равна 7 ч.

Смотрите также архив погоды в соседних городах и на ближайших метеорологических станциях:

Погода в Березовке (Томская область, Россия) (69 км)
Погода в Каргасоке (Томская область, Россия) (107 км)
Погода в Ванжиль-Кынаке (Томская область, Россия) (131 км)
Погода в Парабели (Томская область, Россия) (131 км)
Погода в Прохоркино (Томская область, Россия) (144 км)
Погода в Ларьяке (Ханты-Мансийский АО, Россия) (167 км)
Погода в Колпашево (Томская область, Россия) (180 км)
Погода в Корликах (Ханты-Мансийский АО, Россия) (189 км)
Погода в Старице (Томская область, Россия) (205 км)
Погода в Ваховске (Ханты-Мансийский АО, Россия) (213 км)

Пояснения к столбцам:

Ветер - указаны скорость ветра в м/с - средняя за 10 мин, порывы в срок и между сроками (в фигурных скобках) и направление, откуда дует ветер: С - северный, СВ - северо-восточный, В - восточный, ЮВ - юго-восточный, Ю - южный, ЮЗ - юго-западный, З - западный, СЗ - северо-западный.
Видимость - горизонтальная дальность видимости в метрах или километрах. При видимости от 1 до 10 км при отсутствии осадков обычно наблюдается дымка, при ухудшении видимости до 1 км и менее - туман. В сухую погоду видимость может ухудшаться дымом, пылью или мглою.
Явления - указаны атмосферные явления, наблюдавшиеся в срок или в последний час перед сроком; фигурными скобками обозначены явления, наблюдавшиеся между сроками (за 1-3 часа до срока); квадратными скобками обозначены град или гололедные отложения с указанием их диаметра в мм.
Облачность - указаны через наклонную черту общая и нижняя облачность в баллах и высота нижней границы облаков в метрах; квадратными скобками обозначены формы облаков: Ci - перистые, Cs - перисто-слоистые, Cc - перисто-кучевые, Ac - высококучевые, As - высокослоистые, Sc - слоисто-кучевые, Ns - слоисто-дождевые, Cu - кучевые, Cb - кучево-дождевые. Подробнее классификацию облаков см. в Атласе облаков (PDF).
T - Температура воздуха - температура, измеренная на высоте 2 м над землей.
Td - Температура точки росы - температура, при понижении до которой содержащийся в воздухе водяной пар достигнет насыщения.
f - Относительная влажность воздуха - влажноcть воздуха, измеренная на высоте 2 м над землей.
Te - Эффективная температура - температура, которую ощущает одетый по сезону человек в тени. Характеристика душности погоды. При расчете учитывается влияние влажности воздуха и скорости ветра на теплоощущения человека.
Tes - Эффективная температура на солнце - температура, которую ощущает человек, с поправкой на солнечный нагрев. Характеристика знойности погоды. Зависит от высоты солнца над горизонтом, облачности и скорости ветра. Ночью, в пасмурную погоду, а также при ветре 12 м/с и более поправка равна нулю.
P - Атмосферное давление - приведенное к уровню моря атмосферное давление.
Po - Атмосферное давление - измеренное на уровне метеостанции атмосферное давление.
Tmin - Минимальная температура - минимум температуры воздуха на высоте 2 м над землей.
Tmax - Максимальная температура - максимум температуры воздуха на высоте 2 м над землей.
R - Количество осадков - Количество выпавших осадков за период времени, мм. При наведении курсора мыши на число - период времени, за который выпало указанное количество осадков.
R24 - Количество осадков - Количество выпавших осадков за 24 часа, мм.
S - Снежный покров - Высота снежного покрова, см. При наведении курсора мыши на число - состояние снежного покрова и степень покрытия местности в баллах.